Tracking 19242 objects as of 16-Aug-2018
HD Live streaming from Space Station
objects crossing your sky now

FENGYUN 1C DEB

Track FENGYUN 1C DEB now!
10-day predictions


NORAD ID: 31710
Int'l Code: 1999-025CDH
Perigee: 478.6 km
Apogee: 612.4 km
Inclination: 99.0 °
Period: 95.4 minutes
Semi major axis: 6916 km
RCS: 0.0102 m2 (small)
Launch date: May 10, 1999
Source: People's Republic of China (PRC)
Launch site: Taiyaun Space Center, China (TSC)

Note: This is SATELLITE DEBRIS
aabbcc
Your satellite tracking list
Your tracking list is empty




NASA's NSSDC Master Catalog

Two Line Element Set (TLE):
1 31710U 99025CDH 18225.38674426 +.00002436 +00000-0 +14240-3 0  9994
2 31710 098.9975 026.3638 0096708 043.6415 317.2406 15.09296681605137
Source of the keplerian elements: AFSPC